Location: Vlissingen
(51.4500°N, 3.5830°E)
Time: 04:09:01
(UTC+02:00)

Daily predictions for brighter satellites

Satellite Brightness Start Highest point End
(mag) Time Altitude Azimuth Time Altitude Azimuth Time Altitude Azimuth
BREEZE-M DEB 3.8 00:01:04 10° WSW 00:04:09 54° S 00:04:09 54° S
Cosmos 1356 3.9 00:07:23 37° SE 00:08:13 45° E 00:11:37 10° NNE
Cosmos 1833 Rocket 4.0 00:03:41 10° NW 00:08:32 31° WSW 00:12:22 15° SSW
Cosmos 1302 Rocket 4.3 00:06:10 25° S 00:08:58 51° ESE 00:14:07 10° NNE
Cosmos 1400 Rocket 3.4 00:07:46 32° SE 00:09:08 43° E 00:13:06 10° NNE
Cosmos 1536 3.5 00:09:37 31° SE 00:10:46 39° E 00:14:31 10° NNE
Cosmos 1689 Rocket 4.4 00:13:24 15° E 00:14:24 16° ENE 00:16:30 10° NNE
Cosmos 1943 Rocket 4.0 00:13:41 13° ESE 00:14:37 14° E 00:17:21 10° ENE
Spot 4 4.4 00:14:05 22° SSW 00:17:01 51° W 00:21:47 10° NNW
Cosmos 2278 Rocket 4.0 00:12:36 10° WSW 00:17:43 33° NW 00:22:52 10° NNE
Cosmos 1633 3.2 00:17:02 36° SE 00:17:50 42° E 00:21:23 10° NNE
Spot 2 4.0 00:18:07 10° NNE 00:22:32 88° ESE 00:24:42 28° SSW
ISS -3.5 00:21:57 10° WSW 00:25:13 84° S 00:27:58 14° E
NOSS 3-1 (A) 4.0 00:17:57 10° NW 00:25:17 71° SW 00:30:22 25° SSE
Lacrosse 5 2.3 00:27:48 31° S 00:29:15 38° SE 00:33:58 10° ENE
H-2A R/B 4.1 00:26:33 10° NE 00:30:09 23° E 00:31:06 21° ESE
Cosmos 2082 Rocket 4.3 00:27:36 10° WNW 00:31:14 18° W 00:34:51 10° SW
Iridium 4 Rocket 3.8 00:26:30 10° N 00:32:24 86° W 00:35:46 28° S
Cosmos 44 Rocket 4.2 00:27:57 10° NW 00:32:59 47° NE 00:36:40 17° ESE
ASTEX 1 4.0 00:31:28 10° N 00:36:18 55° WNW 00:39:38 20° SSW
Meteor 2-4 Rocket 3.6 00:33:40 10° NNW 00:39:07 80° W 00:41:52 31° S
BREEZE-M TANK 3.6 00:34:19 10° W 00:40:32 30° SSW 00:40:53 29° SSW
Cosmos 1821 Rocket 4.0 00:38:07 25° S 00:42:03 88° W 00:48:18 10° N
Cosmos 1605 Rocket 4.2 00:39:31 29° SSE 00:42:49 61° E 00:49:08 10° NNE
Cosmos 1503 Rocket 4.2 00:37:57 10° NNW 00:43:07 61° WSW 00:45:26 32° S
ATLAS 2AS CENTAUR R/B 3.2 00:38:24 10° NW 00:46:38 79° NE 00:52:35 20° SE
Meteor 2-21 Rocket 4.4 00:44:41 26° S 00:48:24 88° W 00:54:41 10° N
Cosmos 1892 Rocket 3.6 00:44:10 10° NNW 00:48:33 74° W 00:50:05 39° S
CZ-4C R/B 3.2 00:48:13 47° SE 00:49:08 68° ENE 00:52:50 10° N
Meteor 2-16 Rocket 4.4 00:46:15 29° S 00:49:34 81° E 00:55:42 10° NNE
Cosmos 2285 Rocket 4.0 00:47:52 28° S 00:51:17 67° ESE 00:57:39 10° NNE
Cosmos 2084 Rocket 3.5 00:49:20 10° NW 00:53:08 52° SW 00:53:46 46° SSW
Cosmos 1934 Rocket 3.9 00:49:58 27° S 00:53:26 86° W 00:59:33 10° N
Cosmos 2123 Rocket 4.1 00:47:40 10° NNW 00:53:57 73° W 00:57:16 29° S
Cosmos 1602 4.4 00:52:38 29° SW 00:54:18 50° WNW 00:58:09 10° N
Cosmos 968 Rocket 4.0 00:55:01 10° NNW 01:00:11 52° ENE 01:02:53 26° SE
USA 234 3.2 00:53:55 10° ENE 01:00:27 66° SE 01:06:57 10° SW
Meteor 1-11 Rocket 4.2 00:59:28 20° SSW 01:03:27 59° WNW 01:09:08 10° N
Cosmos 44 4.4 01:00:19 10° NW 01:05:26 44° NE 01:09:37 14° ESE
Cosmos 1833 4.2 01:00:58 10° NNW 01:06:37 85° ENE 01:09:17 33° SSE
Cosmos 1602 Rocket 3.6 01:03:59 10° N 01:08:26 70° ENE 01:09:49 43° SSE
Genesis I 3.2 01:07:57 34° SW 01:09:37 85° NW 01:13:40 10° NE
Cosmos 1025 Rocket 4.4 01:05:44 10° NNW 01:09:38 32° W 01:11:22 23° SW
Cosmos 1626 Rocket 3.6 01:08:23 10° N 01:12:53 77° E 01:14:14 45° SSE
Cosmos 1315 Rocket 2.9 01:11:58 43° SW 01:13:06 67° WNW 01:17:03 10° N
CZ-2C R/B 4.0 01:11:43 22° ESE 01:14:17 36° ENE 01:18:42 10° N
Okean 2 4.1 01:11:49 10° NNW 01:15:50 46° W 01:17:00 36° SW
CZ-4B R/B 1.0 01:15:57 85° SSE 01:16:02 90° NW 01:19:13 10° NNW
Lacrosse 5 rocket 0.9 01:16:16 45° SW 01:17:20 83° SSE 01:21:02 10° ENE
Cosmos 1455 Rocket 3.0 01:19:25 45° SSW 01:20:44 83° WNW 01:25:05 10° N
MOS 1-B Rocket 4.2 01:20:33 32° SSE 01:23:44 89° ENE 01:30:58 10° NNW
ALOS 2 2.8 01:22:36 43° SSW 01:23:49 61° WSW 01:28:11 10° NNW
Cosmos 2369 Rocket 2.1 01:21:33 29° SSW 01:24:34 89° WNW 01:30:14 10° NNE
SL-8 R/B 4.2 01:21:06 10° W 01:25:21 38° SSW 01:25:21 38° SSW
CZ-2C R/B 3.4 01:21:59 10° NNE 01:26:53 39° E 01:28:35 30° SE
Cosmos 1346 Rocket 2.9 01:25:41 10° NNW 01:29:35 62° W 01:30:13 52° SW
Cosmos 2219 3.3 01:27:07 10° NNW 01:32:48 74° ENE 01:35:41 30° SE
Cosmos 2227 Rocket 3.8 01:29:04 10° NNW 01:34:06 31° NE 01:39:06 10° ESE
Cosmos 1818 3.8 01:33:28 39° S 01:35:07 54° ESE 01:40:29 10° NE
Cosmos 1066 Rocket 4.2 01:30:14 10° N 01:35:36 72° ENE 01:37:51 36° SSE
Helios 1A Rocket 3.2 01:37:47 10° NNE 01:41:54 54° E 01:42:39 46° SE
Cosmos 1992 Rocket 3.9 01:40:01 36° SSW 01:42:11 87° WNW 01:47:26 10° NNE
Cosmos 1777 Rocket 4.1 01:40:30 10° NNW 01:45:44 73° ENE 01:48:06 33° SE
Cosmos 1689 Rocket 3.1 01:46:27 38° W 01:46:27 38° W 01:49:21 10° NNW
Cosmos 1340 4.1 01:49:44 10° N 01:53:11 32° ENE 01:54:29 25° ESE
Cosmos 2297 Rocket 3.8 01:50:16 10° NNW 01:55:20 32° NE 02:00:22 10° ESE
Cosmos 1743 3.4 01:55:29 38° ESE 01:56:05 40° E 01:59:44 10° NNE
Cosmos 1606 Rocket 4.4 01:55:38 32° SE 01:56:42 37° E 02:00:42 10° NNE
Landsat 5 4.2 01:56:19 36° SW 01:57:11 41° W 02:01:10 10° NNW
Cosmos 1943 Rocket 2.1 01:55:11 38° SSW 01:57:23 75° ESE 02:03:01 10° NNE
ISS -2.4 01:58:24 10° W 02:00:31 37° W 02:00:31 37° W
Cosmos 1975 3.1 02:04:16 45° SW 02:05:14 59° WNW 02:09:17 10° N
H-2A R/B 3.2 02:01:33 10° N 02:05:59 52° WNW 02:07:44 32° SW
Cosmos 2100 Rocket 4.1 02:04:45 33° SSW 02:07:51 77° W 02:14:16 10° N
GP-B 3.4 02:03:50 10° N 02:08:13 59° W 02:09:29 42° SW
NOSS 3-4 (A) 4.4 02:03:01 10° NW 02:09:40 54° NE 02:16:42 10° ESE
NOSS 3-4 (C) 4.5 02:03:07 10° NW 02:09:47 54° NNE 02:16:51 10° ESE
Lacrosse 5 2.1 02:06:57 10° WSW 02:12:02 70° NNW 02:17:09 10° ENE
Cosmos 1842 3.9 02:08:41 10° N 02:12:35 50° ENE 02:13:46 36° SE
Cosmos 44 Rocket 3.9 02:09:44 10° NW 02:14:32 40° WSW 02:15:21 37° SW
Cosmos 2058 Rocket 3.9 02:17:53 32° SE 02:19:15 42° E 02:23:28 10° NNE
Cosmos 1953 Rocket 3.4 02:15:37 10° N 02:19:59 87° WSW 02:21:09 48° S
Cosmos 1666 3.7 02:20:42 31° ESE 02:21:28 35° E 02:24:56 10° NNE
NOSS 3-3 (A) 4.5 02:19:05 33° S 02:21:30 47° ESE 02:27:58 10° NE
NOSS 3-3 (C) 4.5 02:19:11 33° S 02:21:35 47° ESE 02:28:02 10° NE
SeaSat 1 2.6 02:18:51 23° SE 02:21:55 70° NE 02:26:51 10° NNW
Cosmos 1459 Rocket 4.1 02:19:00 31° SSW 02:21:57 65° WNW 02:28:00 10° N
Cosmos 2016 Rocket 3.9 02:22:25 34° SSW 02:25:15 82° W 02:31:25 10° N
UNK 3.8 02:14:27 10° WSW 02:25:39 55° SSE 02:29:06 10° E
Cosmos 2061 Rocket 4.3 02:22:45 30° SSW 02:26:02 64° WNW 02:32:25 10° N
ATLAS CENTAUR R/B 4.1 02:27:51 10° ESE 02:29:13 11° ESE 02:30:39 10° E
Cosmos 1500 3.7 02:28:28 42° WSW 02:29:14 50° WNW 02:32:59 10° N
Cosmos 1825 Rocket 3.9 02:25:28 10° NNW 02:29:50 54° W 02:30:57 42° SW
Cosmos 1726 Rocket 3.5 02:31:12 45° SSE 02:32:24 71° E 02:36:44 10° NNE
SL-24 DEB 4.4 02:28:36 10° N 02:33:21 65° W 02:35:03 38° SSW
Cosmos 1802 Rocket 4.2 02:32:18 30° SW 02:35:25 62° WNW 02:41:43 10° N
ATLAS 2AS CENTAUR R/B 3.7 02:30:00 10° NW 02:37:08 35° WSW 02:39:58 28° SSW
USA 234 3.6 02:37:02 10° ENE 02:43:32 66° NNW 02:49:59 10° W
Cosmos 1758 Rocket 3.7 02:39:16 10° NNW 02:43:44 61° W 02:45:01 42° SSW
Cosmos 1898 Rocket 4.1 02:39:59 10° NNW 02:45:17 57° ENE 02:49:48 14° SE
Cosmos 1864 Rocket 4.5 02:42:51 32° SSW 02:45:58 86° W 02:52:13 10° N
Cosmos 44 3.7 02:41:47 10° NW 02:46:47 45° WSW 02:48:00 38° SSW
Cosmos 1570 Rocket 4.1 02:49:38 35° S 02:51:54 70° ESE 02:57:13 10° NNE
CZ-2C R/B 3.7 02:52:48 30° SW 02:54:13 36° W 02:58:41 10° NNW
Cosmos 1937 Rocket 4.2 02:50:23 10° NNW 02:55:27 50° ENE 03:00:30 10° SE
Lacrosse 5 rocket 2.5 02:53:19 10° W 02:56:49 37° N 03:00:16 10° ENE
Cosmos 1725 Rocket 4.1 02:59:03 30° SSW 03:02:15 67° WNW 03:08:26 10° N
Cosmos 220 Rocket 4.0 03:00:14 10° NNW 03:04:38 77° ENE 03:07:05 25° SSE
SL-08 R/B 3.7 03:03:17 19° SE 03:06:33 59° ENE 03:11:06 10° N
CZ-2C R/B 3.6 03:02:23 10° N 03:07:11 38° WNW 03:10:06 21° WSW
Cosmos 2082 3.6 03:03:19 10° NNW 03:08:59 79° WSW 03:12:53 21° SSE
Cosmos 2369 Rocket 4.1 03:04:53 10° W 03:09:24 24° NW 03:13:55 10° NNE
GENESIS II 4.4 03:11:42 41° SSW 03:12:56 64° SE 03:17:05 10° NE
Cosmos 2228 2.9 03:14:39 37° SSW 03:16:17 79° W 03:20:36 10° N
Cosmos 2219 4.5 03:12:08 10° NW 03:16:23 22° WSW 03:17:35 21° WSW
Meteor 2-9 Rocket 4.3 03:14:20 29° SSW 03:17:27 80° WNW 03:23:15 10° N
Cosmos 2227 Rocket 2.2 03:12:58 10° NW 03:18:37 65° WSW 03:22:12 23° S
Cosmos 1980 Rocket 4.5 03:16:10 10° SE 03:18:53 14° E 03:21:36 10° ENE
Cosmos 1707 3.4 03:16:53 10° N 03:20:47 54° ENE 03:23:13 21° SSE
Resurs 1-4 Rocket 4.3 03:20:26 10° NE 03:23:57 18° E 03:27:28 10° SE
Cosmos 972 Rocket 4.2 03:21:41 10° NNW 03:26:28 51° WSW 03:28:50 28° SSW
Cosmos 1340 4.0 03:25:41 10° NW 03:28:49 25° W 03:29:21 24° WSW
Cosmos 1656 Rocket 4.3 03:26:49 21° WSW 03:30:29 50° NW 03:35:58 10° NNE
Meteor 1-15 Rocket 4.4 03:28:29 27° SSW 03:31:48 70° WNW 03:37:44 10° N
NOSS 2-1 (D) 4.5 03:33:23 25° SSE 03:35:00 35° ESE 03:39:14 10° NE
Meteor 2-5 Rocket 3.8 03:29:15 10° NNW 03:35:08 85° W 03:39:40 18° S
Gblst 52 Del rocket 4.4 03:28:45 10° W 03:35:33 89° N 03:41:30 10° E
NOSS 2-1 (C) 4.5 03:34:45 25° SSE 03:36:25 35° ESE 03:40:39 10° NE
SL-16 R/B 3.4 03:30:33 10° SE 03:36:27 50° ENE 03:42:23 10° N
NPP 3.8 03:32:50 10° NNE 03:38:14 68° ESE 03:41:47 22° S
Cosmos 2208 Rocket 4.3 03:35:54 25° SW 03:38:54 59° WNW 03:44:08 10° NNE
Cosmos 2297 Rocket 2.2 03:34:11 10° NW 03:39:46 62° WSW 03:44:12 16° S
CBERS-1 4.3 03:35:10 10° NNE 03:40:17 61° ESE 03:43:43 21° S
Cosmos 1943 Rocket 3.8 03:36:59 10° W 03:41:44 28° NW 03:46:32 10° NNE
BREEZE-M DEB (TANK) 3.7 03:37:54 10° WNW 03:43:00 25° SW 03:43:00 25° SW
Cosmos 2278 3.7 03:39:55 25° SSW 03:43:19 76° ESE 03:49:01 10° NNE
Cosmos 2298 Rocket 4.3 03:38:52 10° NNW 03:43:59 50° WSW 03:47:04 23° S
Cosmos 2369 3.8 03:41:50 24° SSW 03:45:17 71° ESE 03:50:58 10° NNE
NOSS 2-1 (E) 4.2 03:49:25 25° S 03:51:27 44° SE 03:56:03 10° NE
Cosmos 1812 Rocket 3.6 03:51:56 26° SSW 03:54:24 71° WNW 03:58:53 10° N
Lacrosse 5 3.0 03:50:41 10° WNW 03:55:35 45° N 04:00:29 10° ENE
USA 161 2.0 03:53:49 18° SSE 03:55:41 54° ENE 03:58:23 10° N
Cosmos 1666 4.3 03:55:42 17° WSW 03:57:17 22° WNW 04:00:20 10° NNW
Cosmos 990 Rocket 3.9 03:52:59 10° NNW 03:58:15 75° WSW 04:03:30 10° SSE
PSLV R/B 4.4 03:54:06 10° N 03:58:17 42° WNW 04:00:51 21° SW
RESURS DK-1 4.0 03:55:32 10° NNW 03:59:24 36° NE 04:03:15 10° ESE
BREEZE-M DEB (TANK) 2.6 03:59:38 29° S 03:59:52 30° S 04:02:42 10° ESE
SeaSat 1 3.7 03:58:38 21° SW 03:59:53 23° WSW 04:03:45 10° NW
NOSS 3-4 (A) 3.9 03:54:04 10° NW 04:00:45 54° SW 04:07:49 10° SSE
NOSS 3-4 (C) 3.9 03:54:09 10° NW 04:00:53 55° SW 04:08:00 10° SSE
Cosmos 1464 Rocket 4.1 04:01:22 19° SSW 04:05:59 74° WNW 04:12:23 10° N
BREEZE-M DEB (TANK) 3.9 04:03:47 20° SSW 04:06:27 33° SSE 04:09:04 10° E
Cosmos 468 Rocket 4.0 04:03:09 21° SSW 04:06:40 85° ESE 04:11:50 10° NNE
ATLAS CENTAUR R/B 2.1 04:04:11 21° SSW 04:07:26 59° SE 04:12:19 10° NE
Abrixas 3.9 04:08:45 22° S 04:08:45 22° S 04:10:29 10° SE
AQUA 3.8 04:04:07 10° NNE 04:08:55 80° WNW 04:12:15 20° SSW
Cosmos 2263 Rocket 4.3 04:06:16 10° NNW 04:11:11 30° NE 04:16:02 10° ESE
Meteor 1-24 Rocket 3.8 04:08:32 10° NNW 04:14:13 72° W 04:20:03 10° S
Cosmos 1092 Rocket 4.2 04:08:14 10° N 04:14:33 79° E 04:20:53 10° SSE
Cosmos 405 Rocket 3.7 04:11:41 10° NNW 04:15:21 32° W 04:17:14 21° SW
Cosmos 1378 3.1 04:11:35 10° N 04:15:24 89° E 04:18:52 12° S
IRAS Rocket 4.3 04:12:54 10° NNE 04:18:34 82° WNW 04:23:06 16° SSW
Cosmos 1461 3.1 04:14:41 10° NW 04:18:57 74° NE 04:22:59 10° SE
SAR-Lupe-3 4.4 04:16:41 15° S 04:19:29 71° WSW 04:22:59 10° NNW
Cosmos 1656 3.8 04:19:23 17° SSW 04:23:51 79° ESE 04:29:31 10° NNE
SL-24 R/B 4.2 04:19:33 10° S 04:24:19 73° WSW 04:28:44 10° NNW
USA 234 4.0 04:19:47 10° E 04:26:09 56° N 04:32:31 10° WNW
CZ-2D R/B 2.8 04:22:26 10° NNE 04:27:49 54° E 04:33:07 10° S
IRS-1C 4.2 04:22:30 10° NNE 04:27:51 71° WNW 04:32:16 15° SSW
Okean 3 Rocket 4.3 04:24:53 10° NNW 04:28:56 36° W 04:31:50 17° SSW
ERS-2 2.2 04:25:22 10° NNE 04:29:07 73° WNW 04:31:51 17° SSW
Cosmos 2227 4.2 04:24:48 10° NNW 04:30:37 85° WSW 04:36:23 10° SSE
Cosmos 1766 3.3 04:28:00 15° S 04:31:17 87° E 04:35:14 10° N
Cosmos 1125 Rocket 3.5 04:28:18 10° NNW 04:33:34 85° WSW 04:38:46 10° SSE
Geosat 4.0 04:31:14 10° NNE 04:36:18 88° WNW 04:40:38 14° SSW
CBERS 1 LM4 rocket 4.5 04:31:37 10° N 04:36:21 64° WNW 04:40:26 14° SSW
Lacrosse 5 rocket 2.6 04:33:10 10° WNW 04:36:38 37° NNE 04:40:04 10° E
Cosmos 1937 Rocket 4.4 04:32:46 10° NW 04:37:11 29° W 04:40:50 13° SSW
Cosmos 841 Rocket 3.7 04:32:42 13° SSW 04:37:28 71° ESE 04:42:44 10° NNE
UNKNOWN OBJECT B 3.7 04:37:35 10° NNE 04:41:23 45° E 04:45:05 10° S
Cosmos 1763 Rocket 3.5 04:38:03 13° SSW 04:42:43 85° ESE 04:47:55 10° NNE
In-Cosmos 22 4.0 04:38:29 10° NNW 04:43:48 81° W 04:49:05 10° S
Cosmos 1076 Rocket 3.9 04:42:54 10° NNW 04:47:04 46° W 04:51:11 10° SSW
Cosmos 1441 Rocket 3.7 04:45:24 10° NNW 04:49:12 43° W 04:53:00 10° SSW
UNK 4.0 04:47:44 10° S 04:52:18 53° W 04:56:55 10° NNW
GEOS 3 Rocket 3.8 04:48:00 10° SSE 04:53:02 48° SW 04:58:02 10° NW
Cosmos 1697 Rocket 2.7 04:47:49 12° SSW 04:53:05 86° WNW 04:58:48 10° NNE
ARIANE 5 R/B 2.6 04:48:11 10° NNE 04:53:19 78° WNW 04:58:30 10° SSW
Cosmos 1437 2.8 04:52:41 10° NNW 04:56:02 72° W 04:59:21 10° S
Cosmos 1500 Rocket 3.8 04:52:08 10° N 04:56:34 76° ENE 05:00:56 10° SSE
Meteor 1-21 Rocket 4.3 04:51:08 10° NNW 04:57:05 79° W 05:03:00 10° S
EO 1 Del DPAF 3.5 04:54:00 10° S 04:57:47 50° W 05:01:36 10° NNW
Cosmos 1805 3.3 04:56:53 10° S 05:00:48 82° E 05:04:44 10° NNE
Cosmos 1758 3.3 04:57:02 10° S 05:01:03 89° ESE 05:05:05 10° N
MTI 3.8 04:58:07 10° S 05:01:23 66° WSW 05:04:42 10° NNW
Cosmos 2227 Rocket 4.0 04:59:36 10° WNW 05:01:34 12° W 05:03:30 10° WSW
ADEOS 4.1 04:56:41 10° N 05:01:42 47° WNW 05:06:40 10° SW
Cosmos 1980 Rocket 2.4 04:56:17 10° SSW 05:01:53 74° ESE 05:07:35 10° NNE
Cosmos 1743 Rocket 3.5 04:57:39 10° NNW 05:01:59 70° W 05:06:19 10° S
Resurs 1-4 Rocket 2.1 04:59:10 10° NNE 05:04:28 81° WNW 05:09:43 10° SSW
Cosmos 1953 2.3 05:01:00 10° SSW 05:05:02 82° W 05:09:10 10° N
Cosmos 540 Rocket 4.2 05:02:48 10° S 05:07:49 53° ESE 05:12:51 10° NNE
CZ-2C R/B 3.8 05:03:59 10° SSE 05:08:40 87° ENE 05:13:17 10° NNW
Cosmos 1544 3.6 05:05:17 10° S 05:08:53 61° E 05:12:30 10° NNE
Okean O Rocket 2.4 05:09:17 10° NNE 05:13:37 53° E 05:17:56 10° S
Cosmos 2322 Rocket 3.3 05:09:09 10° S 05:14:22 41° ESE 05:19:36 10° NE
SL-16 R/B 3.2 05:14:41 10° SSW 05:20:18 36° W 05:25:57 10° NNW
Cosmos-2242 3.2 05:16:33 10° SSW 05:20:47 57° WNW 05:25:01 10° N
Cosmos 1655 Rocket 4.1 05:14:33 10° NNW 05:20:56 68° W 05:27:16 10° S
Cosmos 2221 4.4 05:18:17 10° SSE 05:22:02 30° E 05:25:50 10° NNE
Cosmos 2297 Rocket 4.0 05:21:12 10° W 05:22:40 11° W 05:24:09 10° WSW
IRS-1D 3.9 05:18:15 10° N 05:23:02 48° WNW 05:27:48 10° SW
Thor Agena Rocket 3.6 05:20:36 10° SSE 05:25:39 88° ENE 05:30:46 10° NNW
Gblst 52 Del rocket 4.3 05:21:05 10° WNW 05:27:22 71° SSW 05:32:59 10° ESE
